Overview Statistics Trail Chart Weather Telemetry Raw packets
 

This is the latest recevied weather packets stored in our database for station/object 4S6DRJ-13. If no packets are shown the sender has not sent any weather packets the latest 10 day(s).

<< 129 130 131 132 133 134 135 >>
Time Temp. Humidity Pressure Rain* Wind** Luminosity Snow
1788265220 29.44° C 77% 1008.5 hPa 0 mm 1.79 m/s, 283° 43 W/m² -
1788265159 29.44° C 77% 1008.6 hPa 0 mm 0.89 m/s, 47° 45 W/m² -
1788265098 29.44° C 77% 1008.5 hPa 0 mm 1.34 m/s, 252° 51 W/m² -
1788265037 29.44° C 77% 1008.6 hPa 0 mm 0.89 m/s, 302° 53 W/m² -
1788264976 29.44° C 77% 1008.5 hPa 0 mm 0.89 m/s, 255° 60 W/m² -
1788264915 29.44° C 77% 1008.7 hPa 0 mm 1.34 m/s, 268° 66 W/m² -
1788264854 29.44° C 77% 1008.3 hPa 0 mm 1.34 m/s, 218° 62 W/m² -
1788264798 29.44° C 77% 1008.6 hPa 0 mm 0.89 m/s, 201° 63 W/m² -
1788264732 29.44° C 77% 1008.5 hPa 0 mm 0.89 m/s, 252° 55 W/m² -
1788264671 29.44° C 77% 1008.4 hPa 0 mm 1.34 m/s, 199° 48 W/m² -
1788264610 29.44° C 76% 1008.5 hPa 0 mm 0.89 m/s, 238° 53 W/m² -
1788264549 29.44° C 76% 1008.6 hPa 0 mm 0.89 m/s, 230° 59 W/m² -
1788264488 29.44° C 76% 1008.5 hPa 0 mm 2.24 m/s, 241° 60 W/m² -
1788264427 29.44° C 75% 1008.5 hPa 0 mm 3.13 m/s, 234° 62 W/m² -
1788264366 30° C 75% 1008.6 hPa 0 mm 2.24 m/s, 243° 63 W/m² -
1788264305 30° C 75% 1008.6 hPa 0 mm 1.34 m/s, 230° 77 W/m² -
1788264244 30° C 75% 1008.4 hPa 0 mm 1.79 m/s, 201° 78 W/m² -
1788264183 30° C 75% 1008.5 hPa 0 mm 1.79 m/s, 184° 84 W/m² -
1788264122 30° C 75% 1008.3 hPa 0 mm 2.68 m/s, 239° 98 W/m² -
1788264061 30° C 74% 1008.5 hPa 0 mm 1.79 m/s, 226° 98 W/m² -
1788264024 30.56° C 74% 1008.3 hPa 0 mm 1.34 m/s, 252° 95 W/m² -
1788263939 30.56° C 73% 1008.4 hPa 0 mm 2.24 m/s, 208° 96 W/m² -
1788263878 30.56° C 73% 1008.2 hPa 0 mm 0.89 m/s, 212° 87 W/m² -
1788263818 30.56° C 73% 1008.2 hPa 0 mm 1.34 m/s, 263° 96 W/m² -
1788263756 30.56° C 72% 1008.3 hPa 0 mm 2.24 m/s, 174° 105 W/m² -

* Rain latest hour (hover to see other rain measurements)
** Current wind speed in m/s (hover to see current wind gust speed)